Location: Audinghen
(50.8518°N, 1.6129°E)
Time: 16:24:05
(UTC+00:00)

NOSS 0 Rocket - Pass Details

Date: 07 August 2020
Orbit: 933 x 956 km, 70.0° (Epoch: 24 September)

Event Time Altitude Azimuth Distance (km) Brightness Sun altitude
Rises 01:34:21 0° 324° (NW) 3,636 7.4 -19.7°
Reaches altitude 10° 01:37:01 10° 318° (NW) 2,689 6.6 -19.5°
Maximum altitude 01:42:46 40° 251° (WSW) 1,378 4.4 -19.1°
Enters shadow 01:44:39 32° 213° (SSW) 1,575 4.5 -19.0°
